H1 CPF 2 NER 2022 7 9 9 190 01 glonass141 H2 1908801 9141 44850 2022 7 9 0 0 0 2022 7 12 23 45 0 900 1 1 0 0 0 1 H9 10 0 59769 0.00000 0 22309875.525 10405.476 12387700.770 10 0 59769 900.00000 0 23658079.518 175142.267 9553752.528 10 0 59769 1800.00000 0 24659576.778 182794.286 6534361.768 10 0 59769 2700.00000 0 25281472.497 80979.561 3388079.209 10 0 59769 3600.00000 0 25503206.685 -77512.142 175974.810 10 0 59769 4500.00000 0 25317398.211 -237193.616 -3039546.580 10 0 59769 5400.00000 0 24730155.812 -342473.339 -6195960.134 10 0 59769 6300.00000 0 23760841.563 -340257.012 -9231842.525 10 0 59769 7200.00000 0 22441295.448 -182446.277 -12088075.343 10 0 59769 8100.00000 0 20814552.572 171772.663 -14709006.121 10 0 59769 9000.00000 0 18933106.164 753949.162 -17043543.315 10 0 59769 9900.00000 0 16856789.025 1584782.665 -19046162.757 10 0 59769 10800.00000 0 14650362.336 2673000.669 -20677805.053 10 0 59769 11700.00000 0 12380913.233 4014749.397 -21906645.656 10 0 59769 12600.00000 0 10115170.728 5593524.622 -22708721.922 10 0 59769 13500.00000 0 7916852.894 7380647.013 -23068404.588 10 0 59769 14400.00000 0 5844156.757 9336263.227 -22978704.277 10 0 59769 15300.00000 0 3947496.204 11410831.422 -22441407.001 10 0 59769 16200.00000 0 2267582.429 13547029.358 -21467036.173 10 0 59769 17100.00000 0 833926.727 15682005.248 -20074642.075 10 0 59769 18000.00000 0 -336172.514 17749876.844 -18291423.254 10 0 59769 18900.00000 0 -1238117.550 19684373.814 -16152187.650 10 0 59769 19800.00000 0 -1879955.010 21421512.355 -13698664.487 10 0 59769 20700.00000 0 -2281779.943 22902189.603 -10978680.994 10 0 59769 21600.00000 0 -2474627.467 24074588.908 -8045220.730 10 0 59769 22500.00000 0 -2498900.975 24896295.196 -4955382.617 10 0 59769 23400.00000 0 -2402405.292 25336031.936 -1769261.849 10 0 59769 24300.00000 0 -2238069.803 25374947.507 1451224.746 10 0 59769 25200.00000 0 -2061459.343 25007397.874 4643545.399 10 0 59769 26100.00000 0 -1928179.250 24241193.859 7745768.062 10 0 59769 27000.00000 0 -1891284.982 23097303.885 10697759.243 10 0 59769 27900.00000 0 -1998806.088 21609025.836 13442343.853 10 0 59769 28800.00000 0 -2291488.951 19820663.780 15926403.900 10 0 59769 29700.00000 0 -2800853.170 17785765.641 18101895.594 10 0 59769 30600.00000 0 -3547642.976 15564995.723 19926766.250 10 0 59769 31500.00000 0 -4540738.337 13223730.757 21365754.497 10 0 59769 32400.00000 0 -5776571.241 10829478.914 22391059.769 10 0 59769 33300.00000 0 -7239071.701 8449228.089 22982869.478 10 0 59769 34200.00000 0 -8900146.239 6146832.272 23129734.837 10 0 59769 35100.00000 0 -10720669.780 3980542.840 22828788.948 10 0 59769 36000.00000 0 -12651951.000 2000785.522 22085803.365 10 0 59769 36900.00000 0 -14637611.644 248273.731 20915082.010 10 0 59769 37800.00000 0 -16615803.403 -1247464.852 19339193.992 10 0 59769 38700.00000 0 -18521671.899 -2469088.303 17388549.520 10 0 59769 39600.00000 0 -20289966.699 -3411926.151 15100825.877 10 0 59769 40500.00000 0 -21857689.925 -4083930.904 12520253.053 10 0 59769 41400.00000 0 -23166673.776 -4505097.501 9696771.329 10 0 59769 42300.00000 0 -24165979.510 -4706374.791 6685075.737 10 0 59769 43200.00000 0 -24814017.294 -4728114.482 3543564.748 10 0 59769 44100.00000 0 -25080297.286 -4618122.581 333212.685 10 0 59769 45000.00000 0 -24946737.252 -4429395.320 -2883612.531 10 0 59769 45900.00000 0 -24408470.287 -4217635.379 -6044363.394 10 0 59769 46800.00000 0 -23474117.027 -4038653.888 -9087534.547 10 0 59769 47700.00000 0 -22165509.254 -3945769.013 -11953867.683 10 0 59769 48600.00000 0 -20516875.070 -3987312.480 -14587515.200 10 0 59769 49500.00000 0 -18573518.664 -4204351.089 -16937138.937 10 0 59769 50400.00000 0 -16390049.371 -4628721.348 -18956921.415 10 0 59769 51300.00000 0 -14028233.870 -5281462.118 -20607468.968 10 0 59769 52200.00000 0 -11554561.468 -6171713.322 -21856588.379 10 0 59769 53100.00000 0 -9037624.676 -7296128.755 -22679921.193 10 0 59769 54000.00000 0 -6545424.958 -8638829.243 -23061423.023 10 0 59769 54900.00000 0 -4142716.668 -10171899.229 -22993678.259 10 0 59769 55800.00000 0 -1888500.454 -11856406.705 -22478044.036 10 0 59769 56700.00000 0 166229.177 -13643904.080 -21524620.729 10 0 59769 57600.00000 0 1980388.320 -15478347.132 -20152049.814 10 0 59769 58500.00000 0 3524281.241 -17298351.292 -18387143.334 10 0 59769 59400.00000 0 4780590.372 -19039690.244 -16264352.658 10 0 59769 60300.00000 0 5744838.885 -20637931.524 -13825087.361 10 0 59769 61200.00000 0 6425308.275 -22031097.921 -11116898.194 10 0 59769 62100.00000 0 6842416.656 -23162242.577 -8192540.770 10 0 59769 63000.00000 0 7027586.242 -23981829.350 -5108938.953 10 0 59769 63900.00000 0 7021650.026 -24449818.429 -1926069.065 10 0 59769 64800.00000 0 6872867.047 -24537369.839 1294212.608 10 0 59769 65700.00000 0 6634631.946 -24228093.830 4489375.527 10 0 59769 66600.00000 0 6362977.022 -23518796.388 7597429.754 10 0 59769 67500.00000 0 6113973.416 -22419689.548 10558126.146 10 0 59769 68400.00000 0 5941141.711 -20954058.632 13314118.641 10 0 59769 69300.00000 0 5892981.382 -19157401.278 15812066.451 10 0 59769 70200.00000 0 6010723.013 -17076074.921 18003655.605 10 0 59769 71100.00000 0 6326397.455 -14765509.514 19846521.148 10 0 59769 72000.00000 0 6861302.523 -12288059.952 21305053.383 10 0 59769 72900.00000 0 7624931.102 -9710587.052 22351074.033 10 0 59769 73800.00000 0 8614405.318 -7101866.564 22964370.589 10 0 59769 74700.00000 0 9814440.505 -4529932.525 23133079.688 10 0 59769 75600.00000 0 11197840.965 -2059463.433 22853913.021 10 0 59769 76500.00000 0 12726507.766 250682.172 22132221.829 10 0 59769 77400.00000 0 14352917.782 2349680.223 20981898.765 10 0 59769 78300.00000 0 16022013.904 4196615.544 19425118.500 10 0 59769 79200.00000 0 17673429.261 5761939.658 17491921.162 10 0 59769 80100.00000 0 19243954.290 7028452.291 15219645.418 10 0 59769 81000.00000 0 20670145.038 7991766.322 12652220.689 10 0 59769 81900.00000 0 21890964.721 8660237.016 9839330.621 10 0 59769 82800.00000 0 22850348.477 9054358.401 6835462.675 10 0 59769 83700.00000 0 23499583.820 9205651.903 3698861.004 10 0 59769 84600.00000 0 23799406.287 9155093.689 490402.086 10 0 59769 85500.00000 0 23721721.132 8951146.680 -2727585.410 10 0 59770 0.00000 0 23250877.231 8647480.331 -5892533.373 10 0 59770 900.00000 0 22384437.462 8300474.608 -8942857.329 10 0 59770 1800.00000 0 21133412.048 7966614.715 -11819161.016 10 0 59770 2700.00000 0 19521942.339 7699887.248 -14465403.793 10 0 59770 3600.00000 0 17586447.304 7549289.562 -16830002.792 10 0 59770 4500.00000 0 15374267.139 7556559.079 -18866848.952 10 0 59770 5400.00000 0 12941860.045 7754220.140 -20536215.897 10 0 59770 6300.00000 0 10352627.217 8164032.546 -21805543.148 10 0 59770 7200.00000 0 7674456.991 8795908.777 -22650077.709 10 0 59770 8100.00000 0 4977090.936 9647346.845 -23053361.170 10 0 59770 9000.00000 0 2329422.093 10703403.746 -23007552.606 10 0 59770 9900.00000 0 -203161.500 11937211.300 -22513580.916 10 0 59770 10800.00000 0 -2561277.087 13311013.097 -21581123.766 10 0 59770 11700.00000 0 -4693787.095 14777679.000 -20228413.776 10 0 59770 12600.00000 0 -6559685.540 16282633.297 -18481876.026 10 0 59770 13500.00000 0 -8129553.076 17766115.009 -16375604.431 10 0 59770 14400.00000 0 -9386521.122 19165674.752 -13950687.636 10 0 59770 15300.00000 0 -10326706.380 20418802.462 -11254398.260 10 0 59770 16200.00000 0 -10959099.547 21465574.868 -8339261.987 10 0 59770 17100.00000 0 -11304915.216 22251210.827 -5262025.367 10 0 59770 18000.00000 0 -11396432.612 22728426.670 -2082543.350 10 0 59770 18900.00000 0 -11275378.350 22859492.415 1137390.994 10 0 59770 19800.00000 0 -10990921.527 22617902.541 4335251.178 10 0 59770 20700.00000 0 -10597367.503 21989591.532 7448992.290 10 0 59770 21600.00000 0 -10151649.103 20973643.766 10418252.489 10 0 59770 22500.00000 0 -9710721.952 19582468.668 13185517.703 10 0 59770 23400.00000 0 -9328974.182 17841434.533 15697227.256 10 0 59770 24300.00000 0 -9055759.593 15787976.871 17904799.799 10 0 59770 25200.00000 0 -8933157.648 13470218.792 19765560.744 10 0 59770 26100.00000 0 -8994053.815 10945160.908 21243554.486 10 0 59770 27000.00000 0 -9260620.097 8276515.570 22310227.158 10 0 59770 27900.00000 0 -9743258.825 5532274.442 22944968.090 10 0 59770 28800.00000 0 -10440053.561 2782109.127 23135500.674 10 0 59770 29700.00000 0 -11336750.037 94710.904 22878116.005 10 0 59770 30600.00000 0 -12407268.379 -2464822.017 22177745.273 10 0 59770 31500.00000 0 -13614726.024 -4837443.257 21047869.500 10 0 59770 32400.00000 0 -14912929.819 -6972362.902 19510267.932 10 0 59770 33300.00000 0 -16248276.457 -8828908.084 17594608.996 10 0 59770 34200.00000 0 -17561983.311 -10377963.283 15337890.543 10 0 59770 35100.00000 0 -18792557.811 -11602931.246 12783738.696 10 0 59770 36000.00000 0 -19878403.162 -12500174.811 9981577.328 10 0 59770 36900.00000 0 -20760451.850 -13078921.198 6985682.859 10 0 59770 37800.00000 0 -21384716.655 -13360632.562 3854141.469 10 0 59770 38700.00000 0 -21704651.600 -13377868.938 647728.044 10 0 59770 39600.00000 0 -21683222.570 -13172691.026 -2571271.749 10 0 59770 40500.00000 0 -21294599.042 -12794669.986 -5740273.426 10 0 59770 41400.00000 0 -20525393.864 -12298588.268 -8797615.772 10 0 59770 42300.00000 0 -19375396.896 -11741928.967 -11683768.474 10 0 59770 43200.00000 0 -17857769.550 -11182260.539 -14342500.890 10 0 59770 44100.00000 0 -15998690.110 -10674628.436 -16721988.146 10 0 59770 45000.00000 0 -13836463.115 -10269065.192 -18775831.863 10 0 59770 45900.00000 0 -11420128.811 -10008325.551 -20463974.701 10 0 59770 46800.00000 0 -8807630.052 -9925943.711 -21753490.053 10 0 59770 47700.00000 0 -6063612.870 -10044696.009 -22619230.862 10 0 59770 48600.00000 0 -3256952.455 -10375535.031 -23044324.508 10 0 59770 49500.00000 0 -458107.834 -10917040.967 -23020503.905 10 0 59770 50400.00000 0 2263584.117 -11655413.875 -22548268.303 10 0 59770 51300.00000 0 4842562.395 -12565007.465 -21636870.758 10 0 59770 52200.00000 0 7219532.679 -13609381.847 -20304132.723 10 0 59770 53100.00000 0 9343691.492 -14742830.567 -18576089.711 10 0 59770 54000.00000 0 11174591.531 -15912317.081 -16486475.341 10 0 59770 54900.00000 0 12683571.217 -17059738.373 -14076054.316 10 0 59770 55800.00000 0 13854690.005 -18124419.532 -11391817.997 10 0 59770 56700.00000 0 14685132.070 -19045733.391 -8486058.934 10 0 59770 57600.00000 0 15185063.528 -19765734.087 -5415343.143 10 0 59770 58500.00000 0 15376951.406 -20231692.983 -2239401.043 10 0 59770 59400.00000 0 15294375.370 -20398429.744 980040.573 10 0 59770 60300.00000 0 14980384.474 -20230340.273 4180462.120 10 0 59770 61200.00000 0 14485470.163 -19703036.285 7299766.317 10 0 59770 62100.00000 0 13865242.598 -18804527.913 10277480.906 10 0 59770 63000.00000 0 13177909.413 -17535900.149 13055925.726 10 0 59770 63900.00000 0 12481663.772 -15911455.309 15581321.742 10 0 59770 64800.00000 0 11832091.841 -13958315.940 17804821.358 10 0 59770 65700.00000 0 11279708.373 -11715504.996 19683441.086 10 0 59770 66600.00000 0 10867723.283 -9232541.585 21180879.755 10 0 59770 67500.00000 0 10630132.063 -6567610.262 22268207.881 10 0 59770 68400.00000 0 10590209.110 -3785379.015 22924416.253 10 0 59770 69300.00000 0 10759466.317 -954555.294 23136814.307 10 0 59770 70200.00000 0 11137119.912 1854720.256 22901271.547 10 0 59770 71100.00000 0 11710087.753 4573536.268 22222297.856 10 0 59770 72000.00000 0 12453517.465 7136820.860 21112961.153 10 0 59770 72900.00000 0 13331824.074 9485793.331 19594643.599 10 0 59770 73800.00000 0 14300194.814 11570157.346 17696640.123 10 0 59770 74700.00000 0 15306499.428 13349945.760 15455605.831 10 0 59770 75600.00000 0 16293527.276 14796941.341 12914861.521 10 0 59770 76500.00000 0 17201458.652 15895614.690 10123569.167 10 0 59770 77400.00000 0 17970467.443 16643540.219 7135791.950 10 0 59770 78300.00000 0 18543346.158 17051272.637 4009455.811 10 0 59770 79200.00000 0 18868042.780 17141688.704 805231.742 10 0 59770 80100.00000 0 18900001.896 16948821.418 -2414639.877 10 0 59770 81000.00000 0 18604210.194 16516235.374 -5587560.120 10 0 59770 81900.00000 0 17956858.427 15895011.567 -8651793.696 10 0 59770 82800.00000 0 16946547.742 15141426.760 -11547677.863 10 0 59770 83700.00000 0 15574987.386 14314425.860 -14218793.680 10 0 59770 84600.00000 0 13857152.219 13472994.746 -16613075.746 10 0 59770 85500.00000 0 11820891.433 12673545.528 -18683837.633 10 0 59771 0.00000 0 9506003.417 11967425.871 -20390691.972 10 0 59771 900.00000 0 6962812.880 11398658.310 -21700347.263 10 0 59771 1800.00000 0 4250312.147 11002007.062 -22587262.997 10 0 59771 2700.00000 0 1433939.597 10801453.506 -23034152.972 10 0 59771 3600.00000 0 -1416909.141 10809146.297 -23032324.387 10 0 59771 4500.00000 0 -4231534.533 11024870.368 -22581847.043 10 0 59771 5400.00000 0 -6940640.088 11436057.322 -21691549.273 10 0 59771 6300.00000 0 -9478980.033 12018336.536 -20378840.902 10 0 59771 7200.00000 0 -11787837.270 12736603.232 -18669367.021 10 0 59771 8100.00000 0 -13817228.616 13546557.733 -16596499.729 10 0 59771 9000.00000 0 -15527745.918 14396650.072 -14200678.222 10 0 59771 9900.00000 0 -16891957.040 15230346.918 -11528610.760 10 0 59771 10800.00000 0 -17895309.535 15988624.146 -8632354.714 10 0 59771 11700.00000 0 -18536500.911 16612578.886 -5568293.369 10 0 59771 12600.00000 0 -18827301.900 17046049.985 -2396030.313 10 0 59771 13500.00000 0 -18791842.421 17238135.692 822776.306 10 0 59771 14400.00000 0 -18465392.408 17145501.955 4025616.239 10 0 59771 15300.00000 0 -17892690.929 16734383.931 7150342.303 10 0 59771 16200.00000 0 -17125895.710 15982196.500 10136374.339 10 0 59771 17100.00000 0 -16222240.805 14878686.333 12925868.618 10 0 59771 18000.00000 0 -15241501.873 13426577.481 15464830.258 10 0 59771 18900.00000 0 -14243376.063 11641683.779 17704147.854 10 0 59771 19800.00000 0 -13284886.407 9552483.470 19600531.333 10 0 59771 20700.00000 0 -12417919.108 7199173.780 21117336.075 10 0 59771 21600.00000 0 -11686996.020 4632244.356 22225258.847 10 0 59771 22500.00000 0 -11127374.507 1910628.034 22902893.432 10 0 59771 23400.00000 0 -10763553.064 -900495.466 23137136.471 10 0 59771 24300.00000 0 -10608244.229 -3732153.429 22923436.612 10 0 59771 25200.00000 0 -10661857.051 -6514191.812 22265882.678 10 0 59771 26100.00000 0 -10912510.490 -9177938.365 21177129.239 10 0 59771 27000.00000 0 -11336577.338 -11658808.820 19678160.601 10 0 59771 27900.00000 0 -11899736.522 -13898749.881 17797896.893 10 0 59771 28800.00000 0 -12558490.613 -15848418.953 15572648.688 10 0 59771 29700.00000 0 -13262086.036 -17469011.077 13045429.209 10 0 59771 30600.00000 0 -13954756.500 -18733657.612 10265135.890 10 0 59771 31500.00000 0 -14578196.299 -19628338.347 7285615.727 10 0 59771 32400.00000 0 -15074160.015 -20152268.762 4164631.245 10 0 59771 33300.00000 0 -15387079.224 -20317745.688 962746.214 10 0 59771 34200.00000 0 -15466585.448 -20149457.206 -2257847.682 10 0 59771 35100.00000 0 -15269831.934 -19683285.228 -5434540.531 10 0 59771 36000.00000 0 -14763514.738 -18964650.703 -8505526.385 10 0 59771 36900.00000 0 -13925505.939 -18046470.996 -11411013.420 10 0 59771 37800.00000 0 -12746027.911 -16986815.710 -14094397.598 10 0 59771 38700.00000 0 -11228316.853 -15846360.288 -16503375.954 10 0 59771 39600.00000 0 -9388745.472 -14685745.536 -18590976.639 10 0 59771 40500.00000 0 -7256397.632 -13562955.387 -20316484.721 10 0 59771 41400.00000 0 -4872111.106 -12530824.455 -21646244.842 10 0 59771 42300.00000 0 -2287027.309 -11634781.432 -22554324.419 10 0 59771 43200.00000 0 439292.231 -10910924.222 -23023024.047 10 0 59771 44100.00000 0 3241104.503 -10384508.433 -23043224.950 10 0 59771 45000.00000 0 6048985.429 -10068913.184 -22614566.599 10 0 59771 45900.00000 0 8792487.782 -9965127.668 -21745451.182 10 0 59771 46800.00000 0 11402845.732 -10061779.686 -20452874.999 10 0 59771 47700.00000 0 13815613.055 -10335704.225 -18762090.410 10 0 59771 48600.00000 0 15973125.090 -10753027.121 -16706105.323 10 0 59771 49500.00000 0 17826681.994 -11270716.930 -14325030.446 10 0 59771 50400.00000 0 19338362.648 -11838538.250 -11665287.666 10 0 59771 51300.00000 0 20482394.365 -12401322.696 -8778695.659 10 0 59771 52200.00000 0 21246022.427 -12901460.410 -5721451.300 10 0 59771 53100.00000 0 21629844.605 -13281505.695 -2553027.575 10 0 59771 54000.00000 0 21647598.604 -13486785.849 664989.740 10 0 59771 54900.00000 0 21325413.387 -13467902.324 3870103.301 10 0 59771 55800.00000 0 20700557.877 -13183018.325 7000119.309 10 0 59771 56700.00000 0 19819741.495 -12599836.215 9994352.590 10 0 59771 57600.00000 0 18737039.572 -11697181.558 12794798.258 10 0 59771 58500.00000 0 17511531.889 -10466127.439 15347247.457 10 0 59771 59400.00000 0 16204754.190 -8910612.064 17602326.311 10 0 59771 60300.00000 0 14878069.606 -7047523.930 19516438.963 10 0 59771 61200.00000 0 13590069.778 -4906250.939 21052597.662 10 0 59771 62100.00000 0 12394113.620 -2527711.883 22181125.268 10 0 59771 63000.00000 0 11336105.462 37090.190 22880218.001 10 0 59771 63900.00000 0 10452604.150 2728933.649 23136358.771 10 0 59771 64800.00000 0 9769340.785 5482587.163 22944574.089 10 0 59771 65700.00000 0 9300205.863 8229271.957 22308530.151 10 0 59771 66600.00000 0 9046747.364 10899277.302 21240466.344 10 0 59771 67500.00000 0 8998200.369 13424622.839 19760967.070 10 0 59771 68400.00000 0 9132047.001 15741659.165 17898575.442 10 0 59771 69300.00000 0 9415083.725 17793500.213 15689255.130 10 0 59771 70200.00000 0 9804951.992 19532187.505 13175709.313 10 0 59771 71100.00000 0 10252068.851 20920496.852 10406568.345 10 0 59771 72000.00000 0 10701877.255 21933312.293 7435460.424 10 0 59771 72900.00000 0 11097321.956 22558509.635 4319982.025 10 0 59771 73800.00000 0 11381446.916 22797312.038 1120587.067 10 0 59771 74700.00000 0 11500004.467 22664101.914 -2100584.027 10 0 59771 75600.00000 0 11403965.306 22185696.221 -5280912.787 10 0 59771 76500.00000 0 11051822.053 21400114.911 -8358524.855 10 0 59771 77400.00000 0 10411587.364 20354893.806 -11273501.316 10 0 59771 78300.00000 0 9462400.156 19105012.810 -13969054.757 10 0 59771 79200.00000 0 8195669.889 17710526.798 -16392646.070 10 0 59771 80100.00000 0 6615708.407 16233999.504 -18497019.135 10 0 59771 81000.00000 0 4739820.536 14737849.118 -20241132.212 10 0 59771 81900.00000 0 2597847.632 13281718.221 -21590967.063 10 0 59771 82800.00000 0 231181.722 11919979.586 -22520199.317 10 0 59771 83700.00000 0 -2308709.745 10699483.521 -23010716.623 10 0 59771 84600.00000 0 -4962187.623 9657641.972 -23052974.223 10 0 59771 85500.00000 0 -7663694.109 8820930.201 -22646180.971 10 0 59772 0.00000 0 -10344260.973 8203868.902 -21798312.367 10 0 59772 900.00000 0 -12934169.715 7808528.748 -20525950.008 10 0 59772 1800.00000 0 -15365648.864 7624578.135 -18853952.173 10 0 59772 2700.00000 0 -17575500.599 7629869.811 -16814960.806 10 0 59772 3600.00000 0 -19507543.444 7791541.113 -14448756.054 10 0 59772 4500.00000 0 -21114770.649 8067579.527 -11801471.142 10 0 59772 5400.00000 0 -22361134.356 8408785.914 -8924683.649 10 0 59772 6300.00000 0 -23222881.781 8761050.933 -5874401.572 10 0 59772 7200.00000 0 -23689388.615 9067847.053 -2709964.839 10 0 59772 8100.00000 0 -23763456.290 9272829.611 507115.573 10 0 59772 9000.00000 0 -23461062.372 9322436.033 3714357.618 10 0 59772 9900.00000 0 -22810576.409 9168372.789 6849523.228 10 0 59772 10800.00000 0 -21851475.961 8769884.746 9851824.517 10 0 59772 11700.00000 0 -20632618.340 8095711.147 12663097.685 10 0 59772 12600.00000 0 -19210141.844 7125645.983 15228922.069 10 0 59772 13500.00000 0 -17645085.310 5851637.359 17499663.349 10 0 59772 14400.00000 0 -16000826.011 4278379.887 19431421.732 10 0 59772 15300.00000 0 -14340442.900 2423375.321 20986867.925 10 0 59772 16200.00000 0 -12724114.673 316458.645 22135952.183 10 0 59772 17100.00000 0 -11206660.176 -2001191.319 22856474.133 10 0 59772 18000.00000 0 -9835322.427 -4478516.524 23134503.566 10 0 59772 18900.00000 0 -8647887.134 -7056460.113 22964645.099 10 0 59772 19800.00000 0 -7671212.734 -9670186.310 22350142.178 10 0 59772 20700.00000 0 -6920232.075 -12251549.517 21302818.509 10 0 59772 21600.00000 0 -6397466.513 -14731712.235 19842857.724 10 0 59772 22500.00000 0 -6093072.240 -17043805.073 17998424.683 10 0 59772 23400.00000 0 -5985416.937 -19125519.945 15805134.574 10 0 59772 24300.00000 0 -6042162.855 -20921529.929 13305378.618 10 0 59772 25200.00000 0 -6221811.507 -22385635.829 10547517.868 10 0 59772 26100.00000 0 -6475645.737 -23482550.098 7584959.267 10 0 59772 27000.00000 0 -6749988.027 -24189243.411 4475130.580 10 0 59772 27900.00000 0 -6988680.212 -24495796.890 1278373.068 10 0 59772 28800.00000 0 -7135679.960 -24405723.258 -1943227.038 10 0 59772 29700.00000 0 -7137663.854 -23935742.419 -5127045.725 10 0 59772 30600.00000 0 -6946526.044 -23115019.849 -8211143.297 10 0 59772 31500.00000 0 -6521665.428 -21983898.907 -11135476.844 10 0 59772 32400.00000 0 -5831962.805 -20592179.890 -13843078.617 10 0 59772 33300.00000 0 -4857362.362 -18997017.946 -16281176.302 10 0 59772 34200.00000 0 -3589988.522 -17260528.449 -18402232.211 10 0 59772 35100.00000 0 -2034748.814 -15447200.967 -20164880.173 10 0 59772 36000.00000 0 -209395.327 -13621231.126 -21534741.008 10 0 59772 36900.00000 0 1855959.637 -11843883.250 -22485099.980 10 0 59772 37800.00000 0 4119854.817 -10170995.175 -22997432.622 10 0 59772 38700.00000 0 6530976.918 -8650730.458 -23061768.444 10 0 59772 39600.00000 0 9030081.151 -7321672.578 -22676885.347 10 0 59772 40500.00000 0 11552255.448 -6211340.960 -21850331.070 10 0 59772 41400.00000 0 14029433.843 -5335190.559 -20598271.439 10 0 59772 42300.00000 0 16393053.803 -4696136.167 -18945168.689 10 0 59772 43200.00000 0 18576746.351 -4284620.094 -16923296.524 10 0 59772 44100.00000 0 20518946.403 -4079218.820 -14572101.829 10 0 59772 45000.00000 0 22165314.075 -4047761.304 -11937426.074 10 0 59772 45900.00000 0 23470865.894 -4148909.894 -9070602.282 10 0 59772 46800.00000 0 24401727.173 -4334135.249 -6027445.830 10 0 59772 47700.00000 0 24936432.877 -4550000.118 -2867159.656 10 0 59772 48600.00000 0 25066723.591 -4740653.901 348824.047 10 0 59772 49500.00000 0 24797804.609 -4850431.284 3558042.418 10 0 59772 50400.00000 0 24148058.781 -4826444.217 6698216.763 10 0 59772 51300.00000 0 23148226.833 -4621057.140 9708459.750 10 0 59772 52200.00000 0 21840091.026 -4194140.732 12530451.460 10 0 59772 53100.00000 0 20274718.640 -3515009.220 15109561.660 10 0 59772 54000.00000 0 18510339.786 -2563959.846 17395897.270 10 0 59772 54900.00000 0 16609948.743 -1333350.033 19345255.680 10 0 59772 55800.00000 0 14638729.070 171832.781 20919966.657 10 0 59772 56700.00000 0 12661409.352 1933932.582 22089607.981 10 0 59772 57600.00000 0 10739658.816 3923119.559 22831582.364 10 0 59772 58500.00000 0 8929629.963 6098398.328 23131545.757 10 0 59772 59400.00000 0 7279748.912 8409088.879 22983679.793 10 0 59772 60300.00000 0 5828843.816 10796720.228 22390803.726 10 0 59772 61200.00000 0 4604687.769 13197259.869 21364323.822 10 0 59772 62100.00000 0 3623015.651 15543588.413 19924020.902 10 0 59772 63000.00000 0 2887055.009 17768118.537 18097679.292 10 0 59772 63900.00000 0 2387590.119 19805451.055 15920563.212 10 0 59772 64800.00000 0 2103556.441 21594958.995 13434749.295 10 0 59772 65700.00000 0 2003140.821 23083192.948 10688326.545 10 0 59772 66600.00000 0 2045341.698 24226007.624 7734477.823 10 0 59772 67500.00000 0 2181924.200 24990320.634 4630459.302 10 0 59772 68400.00000 0 2359688.129 25355429.182 1436496.696 10 0 59772 69300.00000 0 2522953.284 25313828.445 -1785380.791 10 0 59772 70200.00000 0 2616156.848 24871496.033 -4972546.337 10 0 59772 71100.00000 0 2586452.324 24047629.252 -8062997.452 10 0 59772 72000.00000 0 2386198.959 22873844.963 -10996569.535 10 0 59772 72900.00000 0 1975234.746 21392874.745 -13716116.515 10 0 59772 73800.00000 0 1322835.023 19656809.499 -16168634.557 10 0 59772 74700.00000 0 409271.838 17724967.066 -18306305.780 10 0 59772 75600.00000 0 -773093.911 15661472.468 -20087440.644 10 0 59772 76500.00000 0 -2219235.667 13532652.739 -21477299.797 10 0 59772 77400.00000 0 -3911425.878 11404356.185 -22448778.630 10 0 59772 78300.00000 0 -5819745.187 9339309.062 -22982940.773 10 0 59772 79200.00000 0 -7903116.048 7394620.880 -23069389.899 10 0 59772 80100.00000 0 -10110818.210 5619543.167 -22706472.497 10 0 59772 81000.00000 0 -12384423.086 4053575.485 -21901307.795 10 0 59772 81900.00000 0 -14660066.262 2724997.578 -20669644.420 10 0 59772 82800.00000 0 -16870962.877 1649888.392 -19035546.928 10 0 59772 83700.00000 0 -18950060.441 831671.799 -17030918.702 10 0 59772 84600.00000 0 -20832717.823 261206.511 -14694870.961 10 0 59772 85500.00000 0 -22459297.913 -82585.479 -12072950.797 99